Cloud_Cover
91 100 27 8 87 100 100 76 5 0 3 5 3 0 0 2 16 50 0 21 95 35 11 4 96 81 100 100 100 100 100 100 100 100 56 100 80 46 83 83 28 5 7 97 7 69 99 91 100
5 5 9 22 95 95 90 70 0 3 4 5 3 4 2 0 0 0 0 20 100 14 8 59 18 99 100 100 100 100 100 100 100 100 100 100 100 100 98 14 49 87 28 62 92 100 100 100 100
0 2 5 88 70 100 98 82 5 15 81 5 2 0 5 5 0 1 0 0 89 8 0 11 53 41 100 100 100 100 100 100 99 100 100 100 100 100 100 100 5 23 35 100 84 46 13 100 100
4 2 51 100 100 100 100 82 96 72 100 4 5 0 5 1 0 0 5 0 0 100 0 5 25 80 100 90 100 100 100 100 100 100 100 100 100 100 100 86 10 58 42 32 97 43 55 90 100
1 100 19 85 96 84 72 94 100 99 39 94 86 0 0 5 1 0 5 5 8 84 0 5 5 10 100 100 100 100 100 100 100 100 100 98 94 100 100 78 55 93 95 90 99 94 43 98 100
3 100 98 46 96 98 77 88 94 93 98 10 35 0 0 0 0 0 5 5 15 45 0 5 5 16 97 100 100 95 100 100 100 100 100 100 100 98 98 100 100 100 100 99 99 100 52 84 61
0 80 75 87 99 76 40 20 94 83 75 0 8 2 0 4 0 0 2 5 0 23 0 2 49 86 100 93 72 85 100 100 100 100 100 100 100 100 92 100 100 100 98 100 100 100 100 17 93
0 5 8 48 79 16 5 58 5 5 2 0 0 22 0 0 0 0 0 0 0 2 0 0 15 52 100 100 92 99 96 100 100 100 100 100 100 100 100 100 100 99 100 100 93 100 86 63 96
0 54 37 4 5 5 4 4 4 0 0 0 1 0 0 0 0 0 0 0 0 0 25 0 14 100 100 100 100 98 100 95 100 100 100 100 100 100 100 100 100 100 99 100 98 100 93 62 71
9 5 3 0 2 0 5 5 2 3 0 7 28 0 0 0 0 0 0 0 0 0 7 24 5 100 100 100 100 100 100 100 91 88 82 100 100 100 100 100 100 95 94 32 95 98 95 36 82
4 3 1 0 1 0 0 1 5 4 4 4 0 1 4 0 0 0 0 4 3 0 0 5 30 100 100 100 100 100 100 100 100 94 81 100 100 100 98 100 100 100 100 54 100 100 27 100 64
0 0 0 0 0 0 0 0 0 0 2 0 0 0 4 1 1 0 0 0 5 0 0 0 6 67 100 100 100 100 100 100 100 100 100 97 99 100 100 100 100 100 100 100 100 100 51 88 88
0 0 0 0 0 0 0 0 0 0 0 0 0 0 5 5 5 0 0 0 24 5 0 0 2 0 89 100 100 100 100 97 100 100 100 100 100 100 100 100 100 100 100 100 98 100 35 100 48
0 0 0 0 0 0 0 0 0 0 0 0 0 0 2 0 5 2 5 0 1 5 0 1 0 3 2 4 75 100 100 100 70 98 100 100 100 100 100 100 100 100 100 100 90 51 99 47 5
0 0 0 0 0 0 0 0 0 0 0 0 0 0 0 0 4 4 0 0 2 0 0 0 0 0 5 5 1 6 100 100 100 100 86 89 98 100 100 100 100 100 100 100 100 23 14 100 100
0 0 1 0 0 0 0 1 0 0 0 0 0 0 0 0 0 2 3 21 4 4 2 1 0 0 0 11 14 10 3 22 80 100 100 100 97 100 100 100 100 100 100 98 85 62 13 5 32
0 1 0 0 0 0 0 0 0 0 0 0 0 0 0 0 0 0 0 2 4 4 5 8 5 1 2 5 86 25 95 52 6 10 19 63 96 100 100 100 100 100 100 100 97 7 4 5 6
1 0 0 0 0 0 0 0 0 0 0 0 0 0 0 0 0 0 0 0 3 0 4 39 2 5 6 16 5 21 5 60 54 69 71 49 27 23 30 100 100 100 100 100 51 8 31 16 7
0 0 0 0 0 0 0 0 0 0 0 0 0 0 0 0 0 0 0 0 0 0 4 93 43 5 5 91 42 6 5 12 49 89 46 6 5 37 9 75 100 98 100 58 56 16 99 100 100
0 0 0 0 0 0 0 0 0 0 0 0 0 0 0 0 0 0 0 0 8 8 4 3 77 62 84 61 81 98 17 10 82 90 5 100 16 97 100 100 99 67 49 100 92 94 100 100 100
0 0 0 0 0 0 0 1 0 0 0 0 0 0 0 0 0 0 0 9 18 20 5 6 21 58 81 34 12 94 100 76 37 11 12 18 100 78 100 100 75 99 100 77 100 80 100 100 98
0 0 0 0 0 16 0 28 3 0 0 0 0 0 0 0 0 0 0 0 7 54 26 100 76 91 91 7 90 80 100 100 84 46 59 94 64 54 50 92 100 100 100 80 100 100 93 6 75
0 0 0 0 0 0 3 1 98 0 4 4 1 0 0 0 0 0 0 0 0 0 0 3 76 38 7 0 13 19 100 84 64 5 98 100 93 12 60 99 83 100 100 99 8 5 12 62 89
0 0 0 0 1 8 23 1 6 59 54 6 0 0 0 0 0 0 0 0 0 0 0 0 30 83 23 12 62 6 27 8 31 16 78 100 89 6 79 6 92 99 59 15 16 10 86 42 20
0 0 1 31 97 100 7 0 0 0 0 0 0 0 0 0 0 0 0 0 0 0 0 0 0 0 1 6 99 61 5 5 99 90 99 91 69 56 6 5 100 100 68 5 5 48 74 98 100
0 0 0 0 5 4 5 3 27 0 0 0 0 0 0 0 0 0 0 0 0 0 0 0 0 0 0 1 2 20 98 47 12 81 97 86 100 45 6 5 66 100 100 51 63 78 100 100 100
4 0 1 0 0 1 5 69 18 1 0 0 0 0 1 0 0 0 0 0 0 0 0 0 0 0 0 0 2 0 5 26 7 100 61 88 99 36 100 37 45 76 9 16 100 36 15 100 100
0 0 0 2 4 2 18 5 52 11 11 2 5 4 0 0 0 0 0 0 0 0 0 0 0 0 0 0 0 35 4 4 4 3 92 48 25 97 66 94 5 46 0 2 6 4 51 99 100
2 1 3 1 0 0 4 19 9 2 28 9 1 1 0 0 0 0 0 0 0 0 0 0 0 0 0 0 5 12 38 42 40 6 0 32 16 100 94 7 84 3 5 2 1 0 5 58 75
0 0 0 0 2 5 4 1 22 0 0 0 2 0 0 0 0 0 0 0 0 0 0 0 0 0 0 0 0 1 0 12 51 27 11 0 4 82 100 22 56 6 3 2 5 2 85 7 42